User: anonymous   Login
Location: Bergnershof
(48.9468°N, 10.9431°E)
Time: 10:32:07
(UTC+00:00)
Language:

USA 281 - Orbit

View from above orbital plane
View from above orbital plane
View from above satellite
View from above satellite

Ground track
Ground track

The orbit data is extracted from the following two-line orbital elements,

1 43145U 18005A   21127.96897604 0.00000000  00000-0  00000-0 0    06
2 43145 106.0068 260.1601 0001867 322.5939  37.4061 13.48005779    06
Epoch (UTC): 07 May 2021 23:15:19
Eccentricity: 0.0001867
inclination: 106.0068°
perigee height: 1078 km
apogee height: 1081 km
right ascension of ascending node: 260.1601°
argument of perigee: 322.5939°
revolutions per day: 13.48005779
mean anomaly at epoch: 37.4061°
orbit number at epoch: 0

The dashed part of the orbit path shows where the satellite is in the earth's shadow,  

DLR